Gwinn, MI

8:36 AM EST on January 18, 2017 (GMT -0500)
Sawyer International

Weather History for KSAW - January, 2013

Change the Weather History Date:

Thursday, January 31, 2013

  Actual Average (KESC) Record (KESC)
Temperature  
Mean Temperature 10 °F -  
Max Temperature 14 °F 26 °F 46 °F (1993)
Min Temperature 6 °F 6 °F -13 °F (2014)
Degree Days  
Heating Degree Days 55    
Moisture  
Dew Point 6 °F    
Average Humidity 80    
Maximum Humidity 87    
Minimum Humidity 67    
Precipitation  
Precipitation 0.00 in - - ()
Sea Level Pressure  
Sea Level Pressure 29.56 in    
Wind  
Wind Speed 15 mph (NW)    
Max Wind Speed 21 mph    
Max Gust Speed 29 mph    
Visibility 5 miles    
Events Snow    
Averages and records for this station are not official NWS values.
T = Trace of Precipitation, MM = Missing Value Source: NWS Daily Summary

Daily Weather History Graph

Daily Weather History Graph

Search for Another Location

Airport or City:

Trip Planner

Search our weather history database for the weather conditions in past years. The results will help you decide how hot, cold, wet, or windy it might be!

Date:

Astronomy

Jan. 31, 2013 Rise Set
Actual Time 8:13 AM EST 5:53 PM EST
Civil Twilight 7:41 AM EST 6:25 PM EST
Nautical Twilight 7:05 AM EST 7:01 PM EST
Astronomical Twilight 6:30 AM EST 7:36 PM EST
Moon 11:16 PM EST (1/31) 9:53 AM EST (1/31)
Length of Visible Light 10h 43m
Length of Day
9h 39m
Waning Gibbous, 80% of the Moon is Illuminated
Jan 31
Waning Gibbous
Feb 3
Last Quarter
Feb 10
New
Feb 17
First Quarter
Feb 25
Full

Hourly Weather History & Observations

Time (EST) Temp. Windchill Dew Point Humidity Pressure Visibility Wind Dir Wind Speed Gust Speed Precip Events Conditions
12:17 AM 14.0 °F -1.4 °F 10.4 °F 86% 29.32 in - North 15.0 mph 26.5 mph N/A   Unknown
12:37 AM 14.0 °F -2.5 °F 10.6 °F 86% 29.33 in - North 17.3 mph 28.8 mph N/A   Overcast
12:57 AM 13.8 °F -1.7 °F 10.6 °F 87% 29.33 in - North 15.0 mph 23.0 mph N/A   Overcast
1:17 AM 14.0 °F 2.0 °F 10.8 °F 87% 29.35 in - NNW 9.2 mph 20.7 mph N/A   Overcast
1:36 AM 13.8 °F -1.7 °F 10.6 °F 87% 29.35 in - NNW 15.0 mph 18.4 mph N/A   Overcast
1:57 AM 13.5 °F -2.7 °F 9.9 °F 86% 29.36 in 1.5 mi NNW 16.1 mph 20.7 mph N/A Snow Light Snow
2:17 AM 12.9 °F -3.4 °F 9.1 °F 85% 29.37 in 4.0 mi NNW 16.1 mph 23.0 mph N/A Snow Light Snow
2:36 AM 12.9 °F -2.8 °F 9.3 °F 86% 29.38 in 2.0 mi NNW 15.0 mph 20.7 mph N/A Snow Light Snow
2:57 AM 13.1 °F -3.1 °F 9.1 °F 84% 29.38 in 1.8 mi NNW 16.1 mph 24.2 mph N/A Snow Light Snow
3:17 AM 12.7 °F -3.6 °F 9.3 °F 86% 29.39 in 1.2 mi NNW 16.1 mph 23.0 mph N/A Snow Light Snow
3:37 AM 12.6 °F -3.3 °F 8.6 °F 84% 29.39 in 1.8 mi NNW 15.0 mph 21.9 mph N/A Snow Light Snow
3:57 AM 12.2 °F -3.1 °F 8.6 °F 85% 29.40 in 1.5 mi NNW 13.8 mph 21.9 mph N/A Snow Light Snow
4:16 AM 12.0 °F -2.7 °F 8.6 °F 86% 29.40 in 1.2 mi NW 12.7 mph - N/A Snow Light Snow
4:37 AM 11.7 °F -5.0 °F 8.1 °F 85% 29.41 in 1.8 mi NW 16.1 mph 21.9 mph N/A Snow Light Snow
4:57 AM 11.3 °F -6.5 °F 7.5 °F 85% 29.41 in 2.5 mi NW 18.4 mph 27.6 mph N/A Snow Light Snow
5:16 AM 11.1 °F -5.1 °F 6.8 °F 83% 29.43 in 2.5 mi NW 15.0 mph - N/A Snow Light Snow
5:37 AM 10.9 °F -5.4 °F 6.4 °F 82% 29.43 in 2.0 mi NW 15.0 mph 23.0 mph N/A Snow Light Snow
5:57 AM 10.8 °F -6.2 °F 5.9 °F 81% 29.43 in 3.0 mi NW 16.1 mph - N/A Snow Light Snow
6:51 AM 10.4 °F -5.4 °F 5.0 °F 79% 29.46 in 4.0 mi NW 13.8 mph - N/A Snow Light Snow
8:50 AM 8.6 °F -8.3 °F 3.2 °F 79% 29.51 in 4.0 mi NW 15.0 mph 19.6 mph N/A Snow Light Snow
9:50 AM 8.6 °F -7.7 °F 3.2 °F 79% 29.54 in 10.0 mi NW 13.8 mph - N/A   Overcast
10:45 AM 10.4 °F -7.2 °F 3.2 °F 73% 29.57 in 7.0 mi NW 17.3 mph 23.0 mph N/A   Overcast
10:50 AM 10.4 °F -7.2 °F 3.2 °F 73% 29.57 in 7.0 mi NW 17.3 mph 23.0 mph N/A   Overcast
11:50 AM 10.4 °F -7.2 °F 3.2 °F 73% 29.60 in 10.0 mi NW 17.3 mph 23.0 mph N/A   Overcast
1:50 PM 12.2 °F -5.8 °F 5.0 °F 73% 29.63 in 3.0 mi NW 19.6 mph 24.2 mph N/A   Haze
3:15 PM 10.4 °F -6.6 °F 5.0 °F 79% 29.66 in 2.0 mi NNW 16.1 mph - N/A Snow Light Snow
3:50 PM 10.4 °F -8.6 °F 3.2 °F 73% 29.68 in 5.0 mi NNW 20.7 mph 26.5 mph N/A Snow Light Snow
4:50 PM 10.4 °F -6.6 °F 1.4 °F 67% 29.72 in 5.0 mi NNW 16.1 mph 23.0 mph N/A Snow Light Snow
5:50 PM 8.6 °F -7.0 °F 1.4 °F 73% 29.74 in 7.0 mi NW 12.7 mph - N/A Snow Light Snow
6:50 PM 8.6 °F -7.0 °F 3.2 °F 79% 29.76 in 5.0 mi WNW 12.7 mph - N/A Snow Light Snow
7:50 PM 8.6 °F -6.3 °F 3.2 °F 79% 29.79 in 7.0 mi NW 11.5 mph 16.1 mph N/A Snow Light Snow
8:55 PM 6.8 °F -6.9 °F 3.2 °F 85% 29.81 in 7.0 mi NW 9.2 mph - N/A   Overcast
9:45 PM 8.6 °F -5.5 °F 3.2 °F 79% 29.82 in 10.0 mi NW 10.4 mph 16.1 mph N/A   Overcast
10:17 PM 8.4 °F -5.7 °F 2.8 °F 78% 29.83 in 10.0 mi NW 10.4 mph - N/A   Overcast
10:36 PM 8.1 °F -6.2 °F 2.3 °F 77% 29.83 in 10.0 mi NW 10.4 mph 16.1 mph N/A   Overcast
10:57 PM 7.7 °F -6.6 °F 1.8 °F 77% 29.84 in 10.0 mi NW 10.4 mph - N/A   Overcast
11:16 PM 8.2 °F -6.8 °F 2.1 °F 76% 29.84 in 10.0 mi NW 11.5 mph 18.4 mph N/A   Overcast
11:37 PM 8.1 °F -7.0 °F 1.9 °F 76% 29.84 in 10.0 mi NW 11.5 mph 17.3 mph N/A   Overcast
11:57 PM 7.3 °F -6.2 °F 1.4 °F 77% 29.85 in 10.0 mi NW 9.2 mph - N/A   Mostly Cloudy